ARCTICSAT 1 (RS74S)

Last updated on Mon Nov 03 2025 00:03:22 GMT+0000 (Coordinated Universal Time)

1 61762U 24199AD 25306.57597374 .00045229 00000+0 88745-3 0 9996 2 61762 97.3286 176.8586 0009981 23.3054 336.8647 15.47154952102636
UTC large
Height (km)
Speed (km/s)
/
Latitude / Longitude
Inclination (degrees)
Orbital Period (minutes)
Azimuth
Elevation
Range (km)
Doppler Factor

Next 0 passes for location: London (51.5072 / 0.1276)

Sorry there are no passes over London.